www.pogodaiklimat.ru
ПОГОДА в Айдабеле
Время
и дата
10:15 27.12
10:35 27.12
10:55 27.12
11:15 27.12
11:35 27.12
11:55 27.12
12:15 27.12
12:35 27.12
12:55 27.12
13:15 27.12
13:35 27.12
13:55 27.12
14:15 27.12
14:35 27.12
14:55 27.12
15:15 27.12
15:35 27.12
15:55 27.12
16:15 27.12
16:35 27.12
16:55 27.12
17:15 27.12
17:35 27.12
17:55 27.12
18:15 27.12
18:35 27.12
18:55 27.12
19:15 27.12
19:35 27.12
19:55 27.12
20:15 27.12
20:35 27.12
20:55 27.12
21:15 27.12
21:35 27.12
21:55 27.12
22:15 27.12
22:35 27.12
22:55 27.12
23:15 27.12
23:35 27.12
23:55 27.12
00:15 28.12
00:35 28.12
00:55 28.12
01:15 28.12
01:35 28.12
01:55 28.12
Ветер
(напр.,м/с)
Видим. Явления Облачность Т
(С)
Тd
(С)
f
(%)
Тe
(С)
Тes
(С)
Комфортность P
(гПа)
Po
(гПа)
Тmin
(С)
Tmax
(С)
R
(мм)
R24
(мм)
S
(см)
ЮВ 2 14 км ясно -1.0 -8.0 59 -4 -1 1010.6
ЮВ 2 13 км ясно 0.0 -8.0 55 -3 +1 1010.6
штиль 0 14 км ясно +1.0 -8.0 51 +1 +6 1010.2
Ю 4 14 км ясно +1.0 -7.0 55 -4 0 1009.9
Ю 4 14 км ясно +2.0 -7.0 51 -2 +2 1009.2
Ю 4 14 км ясно +2.0 -7.0 51 -2 +2 1008.9
Ю 3 14 км ясно +3.0 -7.0 48 0 +5 1007.9
нст 2 14 км ясно +3.0 -7.0 48 +1 +7 1007.6
нст 2 14 км ясно +3.0 -7.0 48 +1 +7 1006.9
нст 3 14 км ясно +3.0 -7.0 48 0 +5 1005.9
ЮВ 5 14 км ясно +4.0 -7.0 45 0 +3 1005.6
ЮВ 2
{5}
14 км ясно +5.0 -6.0 45 +3 +10 1004.9
ЮВ 3
{5}
14 км ясно +5.0 -6.0 45 +2 +6 1004.9
ЮВ 4 13 км ясно +6.0 -6.0 42 +3 +6 1004.6
ЮВ 4 14 км ясно +6.0 -6.0 42 +3 +6 1004.2
ЮВ 4 14 км ясно +7.0 -5.0 42 +4 +6 1003.6
Ю 6 14 км ясно +6.0 -6.0 42 +2 +3 1003.6
ЮВ 5 14 км ясно +6.0 -5.0 45 +2 +4 1003.2
ЮВ 4 14 км ясно +6.0 -5.0 45 +3 +4 1003.2
ЮВ 4 14 км ясно +6.0 -5.0 45 +3 +4 1002.9
ЮВ 3 14 км ясно +5.0 -5.0 48 +2 +3 1002.9
ЮВ 3 13 км ясно +4.0 -5.0 52 +1 +1 1002.6
ЮВ 3 14 км ясно +3.0 -5.0 56 0 0 1002.6
В 3 14 км ясно +3.0 -5.0 56 0 0 1002.2
В 3 13 км ясно +2.0 -5.0 60 -2 -2 1002.2
В 3 14 км 2/2 600 м +2.0 -5.0 60 -2 -2 1002.6
В 3 13 км 5/5 690 м +2.0 -5.0 60 -2 -2 1002.6
В 4 14 км 8/8 630 м +1.0 -5.0 64 -4 -4 1002.2
В 4 14 км 8/8 630 м +1.0 -5.0 64 -4 -4 1001.9
В 3 14 км 5/5 660 м +1.0 -5.0 64 -3 -3 1001.9
ЮВ 4 16 км 2/2 600 м +1.0 -5.0 64 -4 -4 1001.9
В 4 14 км 2/2 570 м +1.0 -5.0 64 -4 -4 1001.6
В 4 14 км 2/2 630 м +1.0 -5.0 64 -4 -4 1001.6
В 4 14 км 2/2 660 м +1.0 -4.0 69 -4 -4 1001.2
В 3 14 км ясно 0.0 -4.0 74 -4 -4 1000.9
В 3 14 км ясно 0.0 -4.0 74 -4 -4 1000.9
В 4 14 км 2/2 600 m
[Ac]
0.0 -4.0 74 -5 -5 1000.6
В 4 14 км 2/2 570 м -1.0 -4.0 80 -7 -7 1000.6
В 3 14 км 5/5 600 м -1.0 -4.0 80 -6 -6 1000.6
В 4 14 км 5/5 630 м -1.0 -4.0 80 -7 -7 1000.2
В 3 14 км 8/8 690 м -1.0 -4.0 80 -6 -6 1000.2
СВ 3 14 км 8/8 660 м -2.0 -4.0 86 -7 -7 1000.6
В 3 14 км 8/8 630 м -2.0 -4.0 86 -7 -7 1000.2
В 4 14 км 10/10 900 м -2.0 -4.0 86 -8 -8 1000.2
В 4 14 км 10/10 870 м -1.0 -4.0 80 -7 -7 999.9
В 3 14 км 10/10 900 м -2.0 -4.0 86 -7 -7 999.9
В 5 13 км 8/8 600 м -2.0 -4.0 86 -9 -9 999.2
В 4 14 км 5/5 690 м -1.0 -3.0 86 -7 -7 999.2
Местоположение метеостанции Mc Curtain County Regional Airport: широта 33.9092 долгота -94.8592 высота над уровнем моря 144 м.
В архиве по умолчанию представлена погода в Айдабеле за последние 1-2 суток. Обновление информации о фактической погоде в базе происходит ежечасно! Архивные данные за месяц целиком и за предыдущие месяцы Вы можете получить, выбрав интересующий диапазон дат из раскрывающегося списка и нажав кнопку "Ввод!".
Внимание! Архив погоды МЕТАР в базе сайта по станциям, не включенным в климатический монитор, хранится не более 60 дней. Нет смысла пытаться выбрать более раннюю дату.
*Определитесь, кто Вы:
Внимание! Время в таблицах - местное (без учета летнего времени). Для получения всемирного времени необходимо вычесть поправку, которая равна -6 ч.
Смотрите также архив погоды в соседних городах и на ближайших метеорологических станциях:
Партнеры нашего сайта:      
Пояснения к столбцам:
  • Ветер - указаны скорость ветра в м/с - средняя за 10 мин, порывы в срок и между сроками (в фигурных скобках) и направление, откуда дует ветер: С - северный,
  • СВ - северо-восточный, В - восточный, ЮВ - юго-восточный, Ю - южный, ЮЗ - юго-западный, З - западный, СЗ - северо-западный.
  • Видимость - горизонтальная дальность видимости в метрах или километрах. При видимости от 1 до 10 км при отсутствии осадков обычно наблюдается дымка, при ухудшении видимости до 1 км и менее - туман. В сухую погоду видимость может ухудшаться дымом, пылью или мглою.
  • Явления - указаны атмосферные явления, наблюдавшиеся в срок или в последний час перед сроком; фигурными скобками обозначены явления, наблюдавшиеся между сроками (за 1-3 часа до срока); квадратными скобками обозначены град или гололедные отложения с указанием их диаметра в мм.
  • Облачность - указаны через наклонную черту общая и нижняя облачность в баллах и высота нижней границы облаков в метрах; квадратными скобками обозначены формы облаков: Ci - перистые, Cs - перисто-слоистые, Cc - перисто-кучевые, Ac - высококучевые, As - высокослоистые, Sc - слоисто-кучевые, Ns - слоисто-дождевые, Cu - кучевые, Cb - кучево-дождевые. Подробнее классификацию облаков см. в Атласе облаков (PDF).
  • T - Температура воздуха - температура, измеренная на высоте 2 м над землей.
  • Td - Температура точки росы - температура, при понижении до которой содержащийся в воздухе водяной пар достигнет насыщения.
  • f - Относительная влажность воздуха - влажноcть воздуха, измеренная на высоте 2 м над землей.
  • Te - Эффективная температура - температура, которую ощущает одетый по сезону человек в тени. Характеристика душности погоды. При расчете учитывается влияние влажности воздуха и скорости ветра на теплоощущения человека.
  • Tes - Эффективная температура на солнце - температура, которую ощущает человек, с поправкой на солнечный нагрев. Характеристика знойности погоды. Зависит от высоты солнца над горизонтом, облачности и скорости ветра. Ночью, в пасмурную погоду, а также при ветре 12 м/с и более поправка равна нулю.
  • P - Атмосферное давление - приведенное к уровню моря атмосферное давление.
  • Po - Атмосферное давление - измеренное на уровне метеостанции атмосферное давление.
  • Tmin - Минимальная температура - минимум температуры воздуха на высоте 2 м над землей.
  • Tmax - Максимальная температура - максимум температуры воздуха на высоте 2 м над землей.
  • R - Количество осадков - Количество выпавших осадков за период времени, мм. При наведении курсора мыши на число - период времени, за который выпало указанное количество осадков.
  • R24 - Количество осадков - Количество выпавших осадков за 24 часа, мм.
  • S - Снежный покров - Высота снежного покрова, см. При наведении курсора мыши на число - состояние снежного покрова и степень покрытия местности в баллах.